Lid_Strength_Index
1 1 1 2 3 3 3 3 4 4 3 3 3 2 1 1 1 1 1 1 1 0 1 0 -1 -2 0
5 2 2 2 4 3 4 4 4 4 4 3 3 2 2 2 2 1 1 1 1 1 -0 -0 -0 -1 1
6 5 4 3 3 4 5 5 7 8 7 6 4 3 2 2 2 2 1 1 1 2 1 -0 -1 2 2
7 8 8 7 8 8 8 8 8 8 8 6 6 4 4 3 3 2 2 2 3 5 4 1 2 2 2
9 9 9 8 8 9 9 9 9 8 8 8 8 8 8 5 6 6 5 5 5 4 4 3 2 2 2
9 9 9 9 9 10 9 9 9 9 9 9 9 9 8 7 7 7 6 5 4 3 4 4 3 2 2
9 9 9 9 10 10 10 8 8 9 9 9 9 8 8 6 6 7 6 5 4 4 3 2 2 2 1
9 9 9 10 11 11 10 8 8 9 9 9 9 7 7 6 6 6 5 5 4 4 3 2 1 1 0
9 9 10 10 10 10 9 8 8 8 8 8 8 7 7 6 5 5 4 4 3 2 2 1 1 1 1
9 10 10 11 11 10 9 9 8 7 7 8 7 7 6 5 4 3 2 3 3 2 1 1 1 1 -0
10 11 11 11 10 10 10 9 8 7 7 7 7 7 6 5 4 3 2 4 2 1 1 2 2 1 1
11 12 11 11 11 10 10 9 8 7 7 7 7 7 7 6 5 3 2 2 1 1 2 3 3 3 3
12 13 12 12 11 10 10 9 8 7 7 7 7 7 7 5 5 3 2 2 1 1 2 3 2 3 4
12 13 12 12 11 10 10 9 8 7 7 6 7 7 6 5 5 3 2 2 1 2 3 4 5 4 5
12 11 11 11 11 11 10 10 9 8 7 7 7 7 5 5 5 3 2 2 3 3 3 4 6 7 6
11 12 12 12 12 11 11 10 10 9 8 7 7 7 5 5 5 3 2 2 4 6 4 4 5 5 7